Date_and_time,latitude,longitude,wind_speed,RelWindDirFrom,WindDirFrom,air_pressure,air_temperature,relative_humidity,Temp,platform_speed_wrt_ground,air_pressure_at_mean_sea_level,platform_orientation
2019-09-25 23:40,51.1970883333333,-96.6164883333333,8.1,15.0,313,977.94,11.7,51,16.28,0.0,1004.39,174.9
2019-09-25 23:50,51.1970866666667,-96.61649,8.8,14.9,303,978.06,11.6,52,16.27,0.0,1004.51,174.9
2019-09-26 00:00,51.1970633333333,-96.6164883333333,7.9,13.9,301,978.17,11.6,52,16.19,0.0,1004.61,178.0
2019-09-26 00:10,51.1970966666667,-96.6165016666667,7.7,15.0,300,978.27,11.4,52,16.16,0.0,1004.72,178.0
2019-09-26 00:20,51.1971,-96.6164916666667,8.2,14.8,294,978.35,11.4,53,16.17,0.0,1004.80,178.0
2019-09-26 00:30,51.1970966666667,-96.616495,8.6,15.6,292,978.37,11.3,53,16.16,0.0,1004.83,178.0
2019-09-26 00:40,51.1970983333333,-96.616495,8.1,13.2,296,978.40,11.3,53,16.15,0.0,1004.87,178.0
2019-09-26 00:50,51.1970983333333,-96.6164916666667,8.4,12.5,291,978.47,11.2,55,16.15,0.0,1004.95,178.0
2019-09-26 01:00,51.1970983333333,-96.61649,8.4,12.3,292,978.45,11.3,55,16.13,0.0,1004.92,360.0
2019-09-26 01:10,51.1970983333333,-96.61649,7.7,12.1,285,978.45,11.3,56,16.12,0.0,1004.91,360.0
2019-09-26 01:20,51.1971,-96.61649,6.5,11.0,275,978.53,11.1,57,16.09,0.0,1005.01,360.0
2019-09-26 01:30,51.1971,-96.6164916666667,5.9,9.3,273,978.50,10.9,58,16.08,0.0,1004.99,360.0
2019-09-26 01:40,51.1971,-96.6164916666667,6.8,10.8,274,978.56,10.9,59,16.08,0.0,1005.05,360.0
2019-09-26 01:50,51.1971,-96.61649,7.5,12.0,270,978.64,10.9,59,16.08,0.0,1005.14,360.0
2019-09-26 02:00,51.1971,-96.6164916666667,5.8,9.9,275,978.65,10.8,60,16.07,0.0,1005.16,0.0
2019-09-26 02:10,51.1970983333333,-96.6164916666667,6.5,10.1,274,978.63,10.8,60,16.07,0.0,1005.15,0.0
2019-09-26 02:20,51.1970983333333,-96.6164933333333,6.4,10.7,274,978.68,10.7,60,16.08,0.0,1005.20,0.0
2019-09-26 02:30,51.1970983333333,-96.616495,7.6,11.4,274,978.62,10.7,60,16.08,0.0,1005.15,0.0
2019-09-26 02:40,51.1970983333333,-96.6164933333333,7.3,13.3,281,978.64,10.8,60,16.09,0.0,1005.16,0.0
2019-09-26 02:50,51.1970633333333,-96.6164933333333,8.1,13.6,280,978.68,10.8,60,16.08,0.0,1005.19,0.0
2019-09-26 03:00,51.1970966666667,-96.6165066666667,7.6,13.7,277,978.68,10.6,62,16.07,0.0,1005.21,315.5
2019-09-26 03:10,51.197095,-96.616495,7.4,12.4,278,978.61,10.5,62,16.06,0.0,1005.15,315.5
2019-09-26 03:20,51.197095,-96.616495,7.4,11.6,277,978.55,10.5,62,16.05,0.0,1005.10,315.5
2019-09-26 03:30,51.1970933333333,-96.616495,7.1,11.2,275,978.52,10.4,63,16.04,0.0,1005.07,315.5
2019-09-26 03:40,51.197095,-96.6164933333333,6.7,10.8,268,978.48,10.4,64,16.03,0.0,1005.04,315.5
2019-09-26 03:50,51.1970966666667,-96.6164916666667,5.7,9.5,265,978.47,10.3,65,16.02,0.0,1005.02,315.5
2019-09-26 04:00,51.1971083333333,-96.6164966666667,5.2,8.9,259,978.51,10.0,66,16.02,0.0,1005.09,360.0
2019-09-26 04:10,51.197105,-96.616495,6.3,9.4,257,978.55,9.6,67,16.01,0.0,1005.15,360.0
2019-09-26 04:20,51.1971016666667,-96.6164916666667,6.4,10.1,255,978.55,9.4,68,16.01,0.0,1005.16,360.0
2019-09-26 04:30,51.1971083333333,-96.6165066666667,5.6,7.7,255,978.55,9.2,68,16.00,0.0,1005.16,360.0
2019-09-26 04:40,51.1970966666667,-96.61649,5.2,7.4,253,978.50,9.1,70,15.99,0.0,1005.12,360.0
2019-09-26 04:50,51.197095,-96.6164883333333,5.7,8.3,247,978.54,9.0,71,15.98,0.0,1005.17,360.0
2019-09-26 05:00,51.1971216666667,-96.6165066666667,6.1,9.7,248,978.50,8.9,72,15.99,0.0,1005.14,360.0
2019-09-26 05:10,51.1971116666667,-96.616495,5.9,8.6,243,978.49,8.6,74,15.99,0.0,1005.14,360.0
2019-09-26 05:20,51.19711,-96.6164916666667,5.7,7.3,247,978.49,8.2,76,15.99,0.0,1005.16,360.0
2019-09-26 05:30,51.197095,-96.6164866666667,5.6,7.7,249,978.48,8.2,77,16.14,0.0,1005.16,360.0
2019-09-26 05:40,51.1971016666667,-96.6164883333333,5.0,7.2,253,978.36,8.1,77,15.97,0.0,1005.05,360.0
2019-09-26 05:50,51.1970983333333,-96.61649,4.8,7.6,253,978.23,8.0,77,15.94,0.0,1004.94,360.0
2019-09-26 06:00,51.1971,-96.61649,5.7,8.5,252,978.13,8.0,76,15.92,0.0,1004.84,53.7
2019-09-26 06:10,51.1971,-96.6164916666667,5.4,7.8,254,978.15,8.1,77,15.91,0.0,1004.88,53.7
2019-09-26 06:20,51.1971,-96.6164933333333,5.6,8.0,252,978.16,8.1,76,15.90,0.0,1004.89,53.7
2019-09-26 06:30,51.1971,-96.6164883333333,5.1,7.4,253,978.06,8.2,76,15.87,0.0,1004.79,53.7
2019-09-26 06:40,51.1970966666667,-96.6164916666667,6.2,9.4,252,977.94,8.2,75,15.84,0.0,1004.67,53.7
2019-09-26 06:50,51.197095,-96.6164916666667,6.9,9.0,252,977.81,8.4,72,15.82,0.0,1004.54,53.7
2019-09-26 07:00,51.197095,-96.6164883333333,6.0,9.3,252,977.72,8.5,71,15.81,0.0,1004.45,148.9
2019-09-26 07:10,51.1970966666667,-96.61649,6.2,9.4,248,977.65,8.4,72,15.80,0.0,1004.39,148.9
2019-09-26 07:20,51.1970966666667,-96.61649,7.2,10.1,249,977.52,8.5,73,15.80,0.0,1004.27,148.9
2019-09-26 07:30,51.1970983333333,-96.61649,8.1,11.7,250,977.43,8.7,72,15.79,0.0,1004.16,148.9
2019-09-26 07:40,51.19711,-96.6164816666667,7.0,10.3,247,977.24,8.7,73,15.79,0.0,1003.98,148.9
2019-09-26 07:50,51.1971066666667,-96.6164883333333,6.4,8.9,249,977.02,8.6,74,15.78,0.0,1003.75,148.9
2019-09-26 08:00,51.197105,-96.6164916666667,6.4,9.2,249,976.86,8.7,73,15.78,0.0,1003.58,360.0
2019-09-26 08:10,51.197105,-96.616495,8.0,12.2,249,976.66,8.8,76,15.77,0.0,1003.37,360.0
2019-09-26 08:20,51.1971033333333,-96.61649,6.9,10.1,247,976.50,8.8,78,15.77,0.0,1003.20,360.0
2019-09-26 08:30,51.1971033333333,-96.6164933333333,7.9,10.8,248,976.37,8.6,80,15.77,0.0,1003.07,360.0
2019-09-26 08:40,51.197105,-96.6164933333333,8.2,11.6,249,976.28,8.6,80,15.77,0.0,1002.98,360.0
2019-09-26 08:50,51.1971033333333,-96.6164933333333,8.5,11.4,249,976.19,8.5,81,15.76,0.0,1002.88,360.0
2019-09-26 09:00,51.1971033333333,-96.6164916666667,9.7,14.7,246,976.07,8.5,80,15.75,0.0,1002.76,0.0
2019-09-26 09:10,51.1971033333333,-96.6164916666667,9.7,13.1,245,975.86,8.7,77,15.73,0.0,1002.54,0.0
2019-09-26 09:20,51.1971016666667,-96.6164916666667,9.2,11.8,249,975.76,8.8,74,15.71,0.0,1002.42,0.0
2019-09-26 09:30,51.1970666666667,-96.61647,7.8,12.2,253,975.64,8.8,75,15.69,0.0,1002.29,0.0
2019-09-26 09:40,51.1970833333333,-96.6164833333333,7.5,11.0,250,975.53,8.7,77,15.67,0.0,1002.19,0.0
2019-09-26 09:50,51.19711,-96.6165083333333,7.6,9.7,249,975.39,8.7,79,15.66,0.0,1002.05,0.0
2019-09-26 10:00,51.1970766666667,-96.6164866666667,8.7,11.1,245,975.17,8.6,81,15.73,0.0,1001.82,142.9
2019-09-26 10:10,51.1971016666667,-96.616485,9.1,14.5,241,974.97,8.7,81,15.63,0.0,1001.61,142.9
2019-09-26 10:20,51.1971016666667,-96.6164916666667,9.1,12.7,240,974.77,8.8,78,15.62,0.0,1001.40,142.9
2019-09-26 10:30,51.1971033333333,-96.61649,9.0,12.7,243,974.66,8.8,77,15.60,0.0,1001.30,142.9
2019-09-26 10:40,51.1971016666667,-96.6164916666667,8.8,11.7,238,974.41,8.9,75,15.59,0.0,1001.04,142.9
2019-09-26 10:50,51.1971033333333,-96.6164916666667,9.6,14.4,243,974.45,9.0,72,15.59,0.0,1001.07,142.9
2019-09-26 11:00,51.1971033333333,-96.61649,7.8,12.0,259,974.78,9.1,74,15.58,0.0,1001.40,90.0
2019-09-26 11:10,51.1970283333333,-96.6163533333333,10.6,16.1,260,974.88,9.8,72,15.57,0.0,1001.46,90.0
2019-09-26 11:20,51.1947183333333,-96.59657,11.2,21.7,233,974.94,10.7,70,15.59,4.5,1001.48,90.0
2019-09-26 11:30,51.1699216666667,-96.607435,21.4,27.9,243,974.30,9.8,76,15.86,9.3,1000.87,90.0
2019-09-26 11:40,51.143245,-96.6209816666667,21.4,26.8,243,974.25,9.5,79,15.95,10.1,1000.83,90.0
2019-09-26 11:50,51.11503,-96.63259,23.5,27.0,242,974.16,9.0,85,15.98,10.5,1000.77,90.0
2019-09-26 12:00,51.0863916666667,-96.6437233333333,22.3,25.7,246,974.19,9.1,84,15.99,10.6,1000.79,188.8
2019-09-26 12:10,51.0575383333333,-96.6545316666667,24.3,28.7,252,974.29,9.4,81,15.97,10.7,1000.87,188.8
2019-09-26 12:20,51.02867,-96.6660133333333,23.7,27.7,251,974.37,9.6,79,15.93,10.7,1000.95,188.8
2019-09-26 12:30,50.9997083333333,-96.67673,25.0,29.2,253,974.27,10.0,77,15.83,10.7,1000.82,188.8
2019-09-26 12:40,50.97073,-96.6874816666667,27.1,31.3,257,974.25,10.3,78,15.70,10.7,1000.78,188.8
2019-09-26 12:50,50.941655,-96.6980016666667,27.1,31.2,258,974.37,10.5,79,15.66,10.7,1000.89,188.8
2019-09-26 13:00,50.9123733333333,-96.707925,27.3,31.5,260,974.29,10.5,78,15.73,10.8,1000.77,191.4
2019-09-26 13:10,50.882945,-96.7171483333333,26.8,32.7,258,974.32,10.7,77,15.77,10.8,1000.76,191.4
2019-09-26 13:20,50.8534533333333,-96.7261933333333,26.3,31.5,259,974.50,10.5,76,15.73,10.8,1000.99,191.4
2019-09-26 13:30,50.8236566666667,-96.7329283333333,25.8,30.7,256,974.67,10.5,76,15.72,10.8,1001.18,191.4
2019-09-26 13:40,50.793765,-96.7386016666667,24.5,29.6,256,974.83,10.6,77,15.76,10.8,1001.36,191.4
2019-09-26 13:50,50.7906216666667,-96.7370683333333,19.2,24.5,273,975.45,10.4,77,15.79,1.2,1002.00,191.4
2019-09-26 14:00,50.7843383333333,-96.742775,21.3,30.2,271,975.26,10.3,76,15.81,2.6,1001.80,190.9
2019-09-26 14:10,50.7588433333333,-96.767795,26.6,33.1,264,975.01,10.4,77,15.78,10.8,1001.52,190.9
2019-09-26 14:20,50.733565,-96.7937566666667,25.4,30.4,263,975.12,10.3,77,15.80,10.9,1001.62,190.9
2019-09-26 14:30,50.708355,-96.8200016666667,24.8,28.3,260,975.24,10.3,77,15.79,10.9,1001.74,190.9
2019-09-26 14:40,50.68294,-96.84583,24.4,28.4,260,975.39,10.2,76,15.73,10.9,1001.89,190.9
2019-09-26 14:50,50.6573433333333,-96.8711,24.4,29.1,257,975.59,10.2,74,15.72,10.9,1002.09,190.9
2019-09-26 15:00,50.6327766666667,-96.89855,24.2,28.2,259,975.62,10.3,72,15.71,10.8,1002.11,199.6
2019-09-26 15:10,50.6277516666667,-96.943355,25.7,32.3,272,975.06,10.1,71,15.69,10.4,1001.54,199.6
2019-09-26 15:20,50.6278833333333,-96.9808183333333,20.6,28.3,275,975.69,10.1,70,15.61,8.6,1002.20,199.6
2019-09-26 15:30,50.6304566666667,-96.9807716666667,8.3,16.1,271,976.53,10.2,68,15.19,0.9,1003.05,199.6
2019-09-26 15:40,50.630455,-96.98078,9.4,14.7,268,976.57,10.2,66,15.18,0.0,1003.11,199.6
2019-09-26 15:50,50.63045,-96.98077,10.2,16.1,269,976.55,10.6,64,15.19,0.0,1003.07,199.6
2019-09-26 16:00,50.6304483333333,-96.9807716666667,10.5,15.4,265,976.54,10.7,62,15.20,0.0,1003.05,211.6
2019-09-26 16:10,50.6304466666667,-96.9807716666667,8.8,14.4,267,976.45,10.9,60,15.23,0.0,1002.94,211.6
2019-09-26 16:20,50.6304733333333,-96.9808,8.7,14.4,268,976.26,11.1,58,15.26,0.0,1002.75,211.6
2019-09-26 16:30,50.6304533333333,-96.980785,9.7,15.8,258,976.22,10.9,57,15.27,0.0,1002.71,211.6
2019-09-26 16:40,50.63044,-96.9807816666667,9.5,14.7,266,976.15,11.4,57,15.26,0.0,1002.62,211.6
2019-09-26 16:50,50.6304433333333,-96.9807816666667,8.7,14.8,273,976.03,11.2,57,15.29,0.0,1002.50,211.6
2019-09-26 17:00,50.63043,-96.980785,7.7,13.7,258,975.99,11.3,57,15.31,0.0,1002.47,224.5
2019-09-26 17:10,50.630435,-96.9807816666667,8.1,12.6,272,975.91,11.6,55,15.33,0.0,1002.37,224.5
2019-09-26 17:20,50.6304383333333,-96.9807816666667,5.9,10.2,266,975.88,11.6,54,15.34,0.0,1002.34,224.5
2019-09-26 17:30,50.63046,-96.98078,7.9,14.1,258,975.99,11.7,54,15.36,0.0,1002.44,224.5
2019-09-26 17:40,50.6304566666667,-96.980785,10.7,17.8,260,975.93,11.8,51,15.38,0.0,1002.36,224.5
2019-09-26 17:50,50.6304533333333,-96.9807866666667,9.5,14.7,272,975.84,11.8,50,15.40,0.0,1002.27,224.5
2019-09-26 18:00,50.6304483333333,-96.9807833333333,8.5,15.1,269,975.84,11.9,49,15.39,0.0,1002.25,267.5
2019-09-26 18:10,50.6304516666667,-96.980785,9.1,14.4,258,975.89,12.0,49,15.37,0.0,1002.29,267.5
2019-09-26 18:20,50.630445,-96.9807716666667,7.7,12.7,273,975.87,12.1,48,15.39,0.0,1002.27,267.5
2019-09-26 18:30,50.6304433333333,-96.9807733333333,7.2,13.2,258,975.92,12.3,48,15.42,0.0,1002.29,267.5
2019-09-26 18:40,50.630445,-96.980775,7.9,14.9,271,975.83,12.3,46,15.44,0.0,1002.21,267.5
2019-09-26 18:50,50.6304466666667,-96.9807733333333,9.2,14.7,269,975.78,12.3,45,15.46,0.0,1002.14,267.5
2019-09-26 19:00,50.6304483333333,-96.9807733333333,6.8,14.4,261,975.80,12.5,45,15.45,0.0,1002.15,0.0
2019-09-26 19:10,50.6304483333333,-96.9807733333333,7.1,10.4,258,975.81,12.6,45,15.46,0.0,1002.15,0.0
2019-09-26 19:20,50.6304483333333,-96.9807733333333,8.7,15.7,245,975.80,12.6,46,15.47,0.0,1002.13,0.0
2019-09-26 19:30,50.6304466666667,-96.9807733333333,9.1,16.3,235,975.74,12.5,45,15.50,0.0,1002.08,0.0
2019-09-26 19:40,50.6304466666667,-96.980775,10.5,15.7,249,975.66,12.6,43,15.51,0.0,1001.99,0.0
2019-09-26 19:50,50.6304566666667,-96.9807683333333,8.9,15.3,260,975.62,12.5,44,15.50,0.0,1001.95,0.0
2019-09-26 20:00,50.6304533333333,-96.9807716666667,7.1,12.5,260,975.63,12.6,45,15.50,0.0,1001.95,20.1
2019-09-26 20:10,50.6304583333333,-96.9807766666667,6.3,10.6,252,975.57,12.6,45,15.50,0.0,1001.88,20.1
2019-09-26 20:20,50.6304583333333,-96.9807783333333,9.2,13.4,242,975.49,12.3,44,15.48,0.0,1001.81,20.1
2019-09-26 20:30,50.6304566666667,-96.9807783333333,8.2,12.7,248,975.41,12.1,44,15.49,0.0,1001.73,20.1
2019-09-26 20:40,50.630455,-96.9807766666667,8.8,12.7,239,975.33,11.9,43,15.48,0.0,1001.65,20.1
2019-09-26 20:50,50.6304533333333,-96.980775,8.5,12.8,244,975.33,11.9,43,15.47,0.0,1001.65,20.1
2019-09-26 21:00,50.6304533333333,-96.980775,7.8,11.7,245,975.32,11.9,43,15.45,0.0,1001.63,60.8
2019-09-26 21:10,50.6304533333333,-96.980775,7.4,11.2,238,975.30,11.9,45,15.45,0.0,1001.61,60.8
2019-09-26 21:20,50.6304533333333,-96.980775,7.1,11.4,256,975.29,12.0,44,15.45,0.0,1001.61,60.8
2019-09-26 21:30,50.6304533333333,-96.980775,7.5,11.3,257,975.25,11.9,43,15.45,0.0,1001.57,60.8
2019-09-26 21:40,50.6304533333333,-96.980775,7.1,10.8,251,975.23,11.9,43,15.43,0.0,1001.55,60.8
2019-09-26 21:50,50.6304416666667,-96.98078,6.7,9.5,246,975.19,11.7,45,15.42,0.0,1001.50,60.8
2019-09-26 22:00,50.6304466666667,-96.9807783333333,6.0,8.8,248,975.10,11.6,45,15.41,0.0,1001.42,270.0
2019-09-26 22:10,50.6304483333333,-96.9807766666667,5.3,7.6,250,975.06,11.6,45,15.41,0.0,1001.40,270.0
2019-09-26 22:20,50.63045,-96.9807766666667,4.7,7.5,269,975.03,11.6,45,15.41,0.0,1001.37,270.0
2019-09-26 22:30,50.63045,-96.9807833333333,4.3,6.2,275,975.00,11.6,46,15.40,0.0,1001.35,270.0
2019-09-26 22:40,50.63045,-96.9807716666667,3.7,5.6,273,975.06,11.5,47,15.40,0.0,1001.42,270.0
2019-09-26 22:50,50.6304533333333,-96.9807666666667,4.1,6.4,276,975.07,11.5,48,15.40,0.0,1001.43,270.0
2019-09-26 23:00,50.6304533333333,-96.9808016666667,6.0,15.1,279,975.12,11.3,45,15.38,0.0,1001.49,270.0
2019-09-26 23:10,50.6304616666667,-96.98078,0.4,7.6,216,975.19,10.7,43,15.37,0.0,1001.58,270.0
2019-09-26 23:20,50.63046,-96.9807766666667,7.0,10.0,201,975.07,10.2,47,15.37,0.0,1001.49,270.0
2019-09-26 23:30,50.6304433333333,-96.980785,6.0,8.5,187,975.00,9.8,49,15.37,0.0,1001.44,270.0
2019-09-26 23:40,50.6304566666667,-96.98078,5.8,9.1,195,975.03,9.6,53,15.37,0.0,1001.48,270.0
